• In Hungary
  • List of Countries
  • For 7 days
  • Water Temperature
  • Satellite Maps
  • Weather Map
  • News
  • Weather Widgets
  • user-avatar
    Login

    Hourly Weather Lommel

    Today, 18 October, Wednesday

    Time Temperature Precipitation Wind Pressure Humidity
    00:00 +14°C° 0 mm 2 mps 758 mmHg 82%
    01:00 +14°C° 0 mm 2 mps 757 mmHg 83%
    02:00 +13°C° 0 mm 2 mps 757 mmHg 85%
    03:00 +13°C° 0 mm 2 mps 756 mmHg 86%
    04:00 +13°C° 0 mm 2 mps 756 mmHg 87%
    05:00 +12°C° 0 mm 2 mps 756 mmHg 88%
    06:00 +12°C° 0 mm 2 mps 756 mmHg 89%
    07:00 +14°C° 0 mm 2 mps 756 mmHg 84%
    08:00 +15°C° 0 mm 2 mps 755 mmHg 78%
    09:00 +16°C° 0 mm 2 mps 755 mmHg 73%
    10:00 +18°C° 0 mm 2 mps 755 mmHg 69%
    11:00 +19°C° 0 mm 2 mps 755 mmHg 65%
    12:00 +20°C° 0 mm 2 mps 755 mmHg 61%
    13:00 +20°C° 0 mm 2 mps 755 mmHg 63%
    14:00 +21°C° 0 mm 2 mps 755 mmHg 65%
    15:00 +21°C° 0 mm 2 mps 754 mmHg 67%
    16:00 +19°C° 0 mm 2 mps 754 mmHg 73%
    17:00 +19°C° 0 mm 1 mps 754 mmHg 79%
    18:00 +16°C° 0 mm 1 mps 754 mmHg 86%
    19:00 +16°C° 0 mm 2 mps 755 mmHg 87%
    20:00 +16°C° 0 mm 2 mps 755 mmHg 89%
    21:00 +16°C° 0 mm 2 mps 755 mmHg 90%
    22:00 +15°C° 0 mm 2 mps 755 mmHg 91%
    23:00 +15°C° 0 mm 2 mps 755 mmHg 91%

    Tomorrow, 19 October, Thursday

    Time Temperature Precipitation Wind Pressure Humidity
    00:00 +14°C° 0 mm 2 mps 755 mmHg 91%
    01:00 +14°C° 0 mm 2 mps 754 mmHg 91%
    02:00 +14°C° 0 mm 2 mps 754 mmHg 90%
    03:00 +14°C° 0 mm 2 mps 754 mmHg 90%
    04:00 +13°C° 0 mm 2 mps 754 mmHg 90%
    05:00 +13°C° 0 mm 2 mps 754 mmHg 90%
    06:00 +13°C° 0 mm 2 mps 754 mmHg 89%
    07:00 +13°C° 0 mm 3 mps 754 mmHg 83%
    08:00 +16°C° 0 mm 3 mps 754 mmHg 77%
    09:00 +17°C° 0 mm 3 mps 754 mmHg 71%
    10:00 +19°C° 0 mm 4 mps 753 mmHg 67%
    11:00 +20°C° 0 mm 4 mps 753 mmHg 63%
    12:00 +21°C° 0 mm 4 mps 753 mmHg 60%
    13:00 +21°C° 0 mm 4 mps 752 mmHg 61%
    14:00 +21°C° 0 mm 4 mps 752 mmHg 63%
    15:00 +22°C° 0 mm 3 mps 752 mmHg 64%
    16:00 +21°C° 0 mm 3 mps 752 mmHg 67%
    17:00 +19°C° 0 mm 4 mps 752 mmHg 69%
    18:00 +18°C° 0 mm 4 mps 752 mmHg 71%
    19:00 +18°C° 0 mm 4 mps 752 mmHg 69%
    20:00 +18°C° 0 mm 4 mps 752 mmHg 67%
    21:00 +17°C° 0 mm 4 mps 752 mmHg 65%
    22:00 +17°C° 0 mm 4 mps 752 mmHg 65%
    23:00 +17°C° 0 mm 4 mps 752 mmHg 65%

    Day after tomorrow, 20 October, Friday

    Time Temperature Precipitation Wind Pressure Humidity
    00:00 +17°C° 0 mm 3 mps 752 mmHg 65%
    01:00 +17°C° 0.2 mm 3 mps 752 mmHg 67%
    02:00 +17°C° 0.2 mm 3 mps 752 mmHg 68%
    03:00 +15°C° 0.2 mm 4 mps 752 mmHg 70%
    04:00 +15°C° 0.5 mm 4 mps 752 mmHg 70%
    05:00 +16°C° 0.5 mm 3 mps 752 mmHg 71%
    06:00 +16°C° 0.5 mm 3 mps 753 mmHg 72%
    07:00 +15°C° 0.4 mm 4 mps 753 mmHg 74%
    08:00 +15°C° 0.4 mm 4 mps 753 mmHg 77%
    09:00 +15°C° 0.4 mm 5 mps 753 mmHg 79%
    10:00 +15°C° 0.4 mm 5 mps 753 mmHg 80%
    11:00 +15°C° 0.4 mm 5 mps 753 mmHg 80%
    12:00 +16°C° 0.4 mm 5 mps 753 mmHg 81%
    13:00 +16°C° 0.1 mm 5 mps 753 mmHg 80%
    14:00 +16°C° 0.1 mm 5 mps 754 mmHg 78%
    15:00 +16°C° 0.1 mm 5 mps 754 mmHg 76%
    16:00 +15°C° 0 mm 5 mps 754 mmHg 79%
    17:00 +14°C° 0 mm 4 mps 754 mmHg 82%
    18:00 +13°C° 0 mm 4 mps 755 mmHg 84%
    19:00 +13°C° 0 mm 3 mps 755 mmHg 84%
    20:00 +13°C° 0 mm 3 mps 755 mmHg 84%
    21:00 +12°C° 0 mm 3 mps 756 mmHg 84%
    22:00 +12°C° 0 mm 3 mps 756 mmHg 85%
    23:00 +11°C° 0 mm 3 mps 755 mmHg 85%

    21 October, Saturday

    Time Temperature Precipitation Wind Pressure Humidity
    00:00 +11°C° 0 mm 3 mps 755 mmHg 85%
    01:00 +11°C° 0 mm 4 mps 755 mmHg 83%
    02:00 +11°C° 0 mm 4 mps 755 mmHg 81%
    03:00 +10°C° 0 mm 5 mps 754 mmHg 78%
    04:00 +10°C° 0.1 mm 5 mps 754 mmHg 79%
    05:00 +10°C° 0.1 mm 5 mps 754 mmHg 80%
    06:00 +10°C° 0.1 mm 5 mps 753 mmHg 81%
    07:00 +12°C° 0.6 mm 5 mps 753 mmHg 83%
    08:00 +11°C° 0.6 mm 6 mps 753 mmHg 85%
    09:00 +13°C° 0.6 mm 6 mps 753 mmHg 88%
    10:00 +14°C° 0.3 mm 6 mps 753 mmHg 85%
    11:00 +14°C° 0.3 mm 6 mps 753 mmHg 83%
    12:00 +15°C° 0.3 mm 6 mps 753 mmHg 81%
    13:00 +15°C° 0 mm 6 mps 753 mmHg 76%
    14:00 +15°C° 0 mm 6 mps 753 mmHg 72%
    15:00 +15°C° 0 mm 5 mps 753 mmHg 67%
    16:00 +14°C° 0 mm 5 mps 753 mmHg 69%
    17:00 +13°C° 0 mm 5 mps 753 mmHg 70%
    18:00 +12°C° 0 mm 5 mps 753 mmHg 72%
    19:00 +11°C° 0 mm 6 mps 753 mmHg 71%
    20:00 +11°C° 0 mm 6 mps 753 mmHg 69%
    21:00 +11°C° 0 mm 6 mps 753 mmHg 68%
    22:00 +11°C° 0 mm 7 mps 753 mmHg 68%
    23:00 +10°C° 0 mm 7 mps 753 mmHg 68%

    22 October, Sunday

    Time Temperature Precipitation Wind Pressure Humidity
    00:00 +10°C° 0 mm 7 mps 753 mmHg 69%
    01:00 +10°C° 0 mm 7 mps 753 mmHg 70%
    02:00 +9°C° 0 mm 7 mps 753 mmHg 70%
    03:00 +9°C° 0 mm 7 mps 753 mmHg 71%
    04:00 +9°C° 0 mm 7 mps 753 mmHg 73%
    05:00 +9°C° 0 mm 7 mps 753 mmHg 75%
    06:00 +9°C° 0 mm 7 mps 753 mmHg 77%
    07:00 +9°C° 0 mm 7 mps 753 mmHg 75%
    08:00 +10°C° 0 mm 7 mps 754 mmHg 73%
    09:00 +11°C° 0 mm 8 mps 754 mmHg 71%
    10:00 +11°C° 0.1 mm 7 mps 754 mmHg 70%
    11:00 +11°C° 0.1 mm 7 mps 754 mmHg 69%
    12:00 +11°C° 0.1 mm 7 mps 755 mmHg 68%
    13:00 +11°C° 0.2 mm 6 mps 755 mmHg 68%
    14:00 +11°C° 0.2 mm 6 mps 755 mmHg 68%
    15:00 +12°C° 0.2 mm 5 mps 755 mmHg 67%
    16:00 +10°C° 0 mm 5 mps 756 mmHg 69%
    17:00 +10°C° 0 mm 4 mps 756 mmHg 71%
    18:00 +8°C° 0 mm 4 mps 756 mmHg 73%
    19:00 +8°C° 0 mm 4 mps 757 mmHg 74%
    20:00 +8°C° 0 mm 4 mps 757 mmHg 75%
    21:00 +8°C° 0 mm 4 mps 757 mmHg 76%
    22:00 +8°C° 0.1 mm 4 mps 757 mmHg 77%
    23:00 +8°C° 0.1 mm 4 mps 758 mmHg 78%

    23 October, Monday

    Time Temperature Precipitation Wind Pressure Humidity
    00:00 +8°C° 0.1 mm 4 mps 758 mmHg 79%
    01:00 +8°C° 0.2 mm 4 mps 758 mmHg 80%
    02:00 +8°C° 0.2 mm 4 mps 758 mmHg 81%
    03:00 +8°C° 0.2 mm 4 mps 759 mmHg 82%
    04:00 +8°C° 0 mm 4 mps 759 mmHg 82%
    05:00 +8°C° 0 mm 4 mps 759 mmHg 82%
    06:00 +8°C° 0 mm 4 mps 760 mmHg 82%
    07:00 +10°C° 0 mm 4 mps 760 mmHg 80%
    08:00 +11°C° 0 mm 4 mps 761 mmHg 79%
    09:00 +11°C° 0 mm 4 mps 761 mmHg 77%
    10:00 +12°C° 0 mm 4 mps 761 mmHg 73%
    11:00 +13°C° 0 mm 4 mps 761 mmHg 70%
    12:00 +14°C° 0 mm 4 mps 761 mmHg 66%
    13:00 +14°C° 0 mm 4 mps 761 mmHg 67%
    14:00 +14°C° 0 mm 3 mps 761 mmHg 69%
    15:00 +14°C° 0 mm 3 mps 761 mmHg 70%
    16:00 +13°C° 0 mm 3 mps 762 mmHg 74%
    17:00 +12°C° 0 mm 3 mps 762 mmHg 79%
    18:00 +12°C° 0 mm 2 mps 762 mmHg 84%
    19:00 +11°C° 0 mm 3 mps 762 mmHg 86%
    20:00 +10°C° 0 mm 3 mps 762 mmHg 87%
    21:00 +10°C° 0 mm 3 mps 763 mmHg 89%
    22:00 +10°C° 0 mm 3 mps 763 mmHg 89%
    23:00 +9°C° 0 mm 3 mps 763 mmHg 89%
    Show more